Time,TemperatureF,DewpointF,PressureIn,WindDirection,WindDirectionDegrees,WindSpeedMPH,WindSpeedGustMPH,Humidity,HourlyPrecipIn,Conditions,Clouds,dailyrainin,SoftwareType,DateUTC
2013-09-04 00:01:00,60.2,56.0,30.01,WNW,299,0.0,1.0,86,0.00,,---,0.00,VWS V13.01,2013-09-04 04:01:00,
2013-09-04 00:06:00,59.9,56.0,30.01,WNW,299,0.0,1.0,87,0.00,,---,0.00,VWS V13.01,2013-09-04 04:06:00,
2013-09-04 00:11:00,59.5,55.6,30.01,WNW,299,0.0,1.0,87,0.00,,---,0.00,VWS V13.01,2013-09-04 04:11:00,
2013-09-04 00:16:00,59.3,55.8,30.01,WNW,299,0.0,1.0,88,0.00,,---,0.00,VWS V13.01,2013-09-04 04:16:00,
2013-09-04 00:21:00,59.0,55.5,30.01,WNW,299,0.0,1.0,88,0.00,,---,0.00,VWS V13.01,2013-09-04 04:21:00,
2013-09-04 00:26:00,58.8,55.3,30.01,WNW,299,0.0,1.0,88,0.00,,---,0.00,VWS V13.01,2013-09-04 04:26:00,
2013-09-04 00:31:00,58.6,55.1,30.01,WNW,299,0.0,1.0,88,0.00,,---,0.00,VWS V13.01,2013-09-04 04:31:00,
2013-09-04 00:36:00,58.3,55.1,30.01,WNW,299,0.0,1.0,89,0.00,,---,0.00,VWS V13.01,2013-09-04 04:36:00,
2013-09-04 00:41:00,58.1,54.9,30.01,WNW,299,0.0,0.0,89,0.00,,---,0.00,VWS V13.01,2013-09-04 04:41:00,
2013-09-04 00:46:00,57.8,54.6,30.01,WNW,299,0.0,1.0,89,0.00,,---,0.00,VWS V13.01,2013-09-04 04:46:00,
2013-09-04 00:51:00,57.6,54.7,30.02,WNW,299,0.0,0.0,90,0.00,,---,0.00,VWS V13.01,2013-09-04 04:51:00,
2013-09-04 00:56:00,57.4,54.5,30.01,WNW,299,1.0,2.0,90,0.00,,---,0.00,VWS V13.01,2013-09-04 04:56:00,
2013-09-04 01:01:00,57.2,54.6,30.02,WNW,299,0.0,2.0,91,0.00,,---,0.00,VWS V13.01,2013-09-04 05:01:00,
2013-09-04 01:06:00,57.1,54.5,30.01,WNW,299,0.0,2.0,91,0.00,,---,0.00,VWS V13.01,2013-09-04 05:06:00,
2013-09-04 01:11:00,56.9,54.3,30.02,WNW,299,0.0,1.0,91,0.00,,---,0.00,VWS V13.01,2013-09-04 05:11:00,
2013-09-04 01:16:00,56.8,54.5,30.02,WNW,299,1.0,1.0,92,0.00,,---,0.00,VWS V13.01,2013-09-04 05:16:00,
2013-09-04 01:21:00,56.7,54.4,30.02,WNW,299,0.0,0.0,92,0.00,,---,0.00,VWS V13.01,2013-09-04 05:21:00,
2013-09-04 01:27:00,56.6,54.3,30.02,WNW,299,1.0,1.0,92,0.00,,---,0.00,VWS V13.01,2013-09-04 05:27:00,
2013-09-04 01:32:00,56.4,54.1,30.02,WNW,299,0.0,1.0,92,0.00,,---,0.00,VWS V13.01,2013-09-04 05:32:00,
2013-09-04 01:37:00,56.3,54.0,30.02,WNW,299,0.0,2.0,92,0.00,,---,0.00,VWS V13.01,2013-09-04 05:37:00,
2013-09-04 01:42:00,56.3,54.0,30.02,NNW,343,0.0,3.0,92,0.00,,---,0.00,VWS V13.01,2013-09-04 05:42:00,
2013-09-04 01:47:00,56.2,54.2,30.02,NNW,343,0.0,3.0,93,0.00,,---,0.00,VWS V13.01,2013-09-04 05:47:00,
2013-09-04 01:52:00,56.1,54.1,30.02,NW,321,1.0,2.0,93,0.00,,---,0.00,VWS V13.01,2013-09-04 05:52:00,
2013-09-04 01:57:00,56.1,54.1,30.02,NW,321,0.0,2.0,93,0.00,,---,0.00,VWS V13.01,2013-09-04 05:57:00,
2013-09-04 02:02:00,56.0,54.0,30.02,NW,321,0.0,1.0,93,0.00,,---,0.00,VWS V13.01,2013-09-04 06:02:00,
2013-09-04 02:07:00,55.9,53.9,30.02,NW,321,1.0,1.0,93,0.00,,---,0.00,VWS V13.01,2013-09-04 06:07:00,
2013-09-04 02:12:00,55.8,53.8,30.02,NW,321,0.0,1.0,93,0.00,,---,0.00,VWS V13.01,2013-09-04 06:12:00,
2013-09-04 02:17:00,55.7,53.7,30.02,NW,321,0.0,1.0,93,0.00,,---,0.00,VWS V13.01,2013-09-04 06:17:00,
2013-09-04 02:22:00,55.6,53.6,30.02,NW,321,0.0,0.0,93,0.00,,---,0.00,VWS V13.01,2013-09-04 06:22:00,
2013-09-04 02:27:00,55.5,53.5,30.02,NW,321,0.0,0.0,93,0.00,,---,0.00,VWS V13.01,2013-09-04 06:27:00,
2013-09-04 02:32:00,55.3,53.3,30.02,NW,321,0.0,0.0,93,0.00,,---,0.00,VWS V13.01,2013-09-04 06:32:00,
2013-09-04 02:37:00,55.1,53.1,30.03,NW,321,0.0,0.0,93,0.00,,---,0.00,VWS V13.01,2013-09-04 06:37:00,
2013-09-04 02:42:00,55.0,53.0,30.02,NW,321,0.0,1.0,93,0.00,,---,0.00,VWS V13.01,2013-09-04 06:42:00,
2013-09-04 02:47:00,54.9,53.2,30.02,NW,321,0.0,1.0,94,0.00,,---,0.00,VWS V13.01,2013-09-04 06:47:00,
2013-09-04 02:52:00,54.8,53.1,30.02,NW,321,0.0,0.0,94,0.00,,---,0.00,VWS V13.01,2013-09-04 06:52:00,
2013-09-04 02:57:00,54.6,52.9,30.03,NW,321,0.0,0.0,94,0.00,,---,0.00,VWS V13.01,2013-09-04 06:57:00,
2013-09-04 03:02:00,54.5,52.5,30.03,NW,321,0.0,0.0,93,0.00,,---,0.00,VWS V13.01,2013-09-04 07:02:00,
2013-09-04 03:07:00,54.3,52.6,30.03,NW,321,0.0,0.0,94,0.00,,---,0.00,VWS V13.01,2013-09-04 07:07:00,
2013-09-04 03:12:00,54.2,52.5,30.03,NW,321,0.0,0.0,94,0.00,,---,0.00,VWS V13.01,2013-09-04 07:12:00,
2013-09-04 03:17:00,54.1,52.4,30.03,NW,321,0.0,0.0,94,0.00,,---,0.00,VWS V13.01,2013-09-04 07:17:00,
2013-09-04 03:22:00,54.0,52.3,30.02,NW,321,0.0,0.0,94,0.00,,---,0.00,VWS V13.01,2013-09-04 07:22:00,
2013-09-04 03:27:00,53.8,52.1,30.02,NW,321,0.0,0.0,94,0.00,,---,0.00,VWS V13.01,2013-09-04 07:27:00,
2013-09-04 03:32:00,53.6,51.9,30.03,NW,321,0.0,0.0,94,0.00,,---,0.00,VWS V13.01,2013-09-04 07:32:00,
2013-09-04 03:37:00,53.6,51.9,30.03,NW,321,0.0,0.0,94,0.00,,---,0.00,VWS V13.01,2013-09-04 07:37:00,
2013-09-04 03:42:00,53.5,51.8,30.03,NW,321,0.0,0.0,94,0.00,,---,0.00,VWS V13.01,2013-09-04 07:42:00,
2013-09-04 03:47:00,53.4,51.7,30.03,NW,321,0.0,0.0,94,0.00,,---,0.00,VWS V13.01,2013-09-04 07:47:00,
2013-09-04 03:52:00,53.3,51.9,30.04,NW,321,0.0,2.0,95,0.00,,---,0.00,VWS V13.01,2013-09-04 07:52:00,
2013-09-04 03:57:00,53.3,51.9,30.04,NW,321,0.0,2.0,95,0.00,,---,0.00,VWS V13.01,2013-09-04 07:57:00,
2013-09-04 04:02:00,53.2,51.8,30.04,NW,321,0.0,0.0,95,0.00,,---,0.00,VWS V13.01,2013-09-04 08:02:00,
2013-09-04 04:07:00,53.2,51.8,30.04,NW,321,0.0,0.0,95,0.00,,---,0.00,VWS V13.01,2013-09-04 08:07:00,
2013-09-04 04:12:00,53.1,51.7,30.04,NW,321,0.0,0.0,95,0.00,,---,0.00,VWS V13.01,2013-09-04 08:12:00,
2013-09-04 04:17:00,53.0,51.6,30.04,NW,321,0.0,0.0,95,0.00,,---,0.00,VWS V13.01,2013-09-04 08:17:00,
2013-09-04 04:22:00,52.9,51.5,30.04,NW,321,0.0,0.0,95,0.00,,---,0.00,VWS V13.01,2013-09-04 08:22:00,
2013-09-04 04:27:00,52.8,51.4,30.04,NW,321,0.0,0.0,95,0.00,,---,0.00,VWS V13.01,2013-09-04 08:27:00,
2013-09-04 04:32:00,52.7,51.3,30.05,NW,321,0.0,0.0,95,0.00,,---,0.00,VWS V13.01,2013-09-04 08:32:00,
2013-09-04 04:37:00,52.6,51.2,30.05,NW,321,0.0,0.0,95,0.00,,---,0.00,VWS V13.01,2013-09-04 08:37:00,
2013-09-04 04:42:00,52.6,51.2,30.05,NW,321,0.0,0.0,95,0.00,,---,0.00,VWS V13.01,2013-09-04 08:42:00,
2013-09-04 04:47:00,52.4,51.0,30.05,NW,321,0.0,0.0,95,0.00,,---,0.00,VWS V13.01,2013-09-04 08:47:00,
2013-09-04 04:52:00,52.2,50.8,30.05,NW,321,0.0,0.0,95,0.00,,---,0.00,VWS V13.01,2013-09-04 08:52:00,
2013-09-04 04:57:00,52.1,50.7,30.05,NW,321,0.0,0.0,95,0.00,,---,0.00,VWS V13.01,2013-09-04 08:57:00,
2013-09-04 05:02:00,52.1,50.7,30.05,NW,321,0.0,0.0,95,0.00,,---,0.00,VWS V13.01,2013-09-04 09:02:00,
2013-09-04 05:07:00,51.9,50.5,30.05,NW,321,0.0,0.0,95,0.00,,---,0.00,VWS V13.01,2013-09-04 09:07:00,
2013-09-04 05:12:00,51.8,50.4,30.05,NW,321,0.0,0.0,95,0.00,,---,0.00,VWS V13.01,2013-09-04 09:12:00,
2013-09-04 05:17:00,51.7,50.3,30.06,NW,321,0.0,0.0,95,0.00,,---,0.00,VWS V13.01,2013-09-04 09:17:00,
2013-09-04 05:22:00,51.6,50.2,30.06,NW,321,0.0,0.0,95,0.00,,---,0.00,VWS V13.01,2013-09-04 09:22:00,
2013-09-04 05:27:00,51.5,50.1,30.06,NW,321,0.0,0.0,95,0.00,,---,0.00,VWS V13.01,2013-09-04 09:27:00,
2013-09-04 05:32:00,51.4,50.0,30.06,NW,321,0.0,0.0,95,0.00,,---,0.00,VWS V13.01,2013-09-04 09:32:00,
2013-09-04 05:37:00,51.4,50.0,30.06,NW,321,0.0,0.0,95,0.00,,---,0.00,VWS V13.01,2013-09-04 09:37:00,
2013-09-04 05:42:00,51.5,50.4,30.06,NW,321,0.0,0.0,96,0.00,,---,0.00,VWS V13.01,2013-09-04 09:42:00,
2013-09-04 05:47:00,51.4,50.0,30.06,NW,321,0.0,0.0,95,0.00,,---,0.00,VWS V13.01,2013-09-04 09:47:00,
2013-09-04 05:52:00,51.3,49.9,30.07,NW,321,0.0,0.0,95,0.00,,---,0.00,VWS V13.01,2013-09-04 09:52:00,
2013-09-04 05:57:00,51.2,49.8,30.07,NW,321,0.0,0.0,95,0.00,,---,0.00,VWS V13.01,2013-09-04 09:57:00,
2013-09-04 06:02:00,51.1,49.7,30.07,NW,321,0.0,0.0,95,0.00,,---,0.00,VWS V13.01,2013-09-04 10:02:00,
2013-09-04 06:07:00,51.0,49.6,30.07,NW,321,1.0,1.0,95,0.00,,---,0.00,VWS V13.01,2013-09-04 10:07:00,
2013-09-04 06:12:00,51.1,50.0,30.07,NW,321,0.0,1.0,96,0.00,,---,0.00,VWS V13.01,2013-09-04 10:12:00,
2013-09-04 06:17:00,51.3,50.2,30.07,NW,321,0.0,1.0,96,0.00,,---,0.00,VWS V13.01,2013-09-04 10:17:00,
2013-09-04 06:22:00,51.3,50.2,30.07,NW,321,0.0,0.0,96,0.00,,---,0.00,VWS V13.01,2013-09-04 10:22:00,
2013-09-04 06:27:00,51.3,50.2,30.07,NW,321,0.0,0.0,96,0.00,,---,0.00,VWS V13.01,2013-09-04 10:27:00,
2013-09-04 06:32:00,51.2,50.1,30.07,NW,321,0.0,0.0,96,0.00,,---,0.00,VWS V13.01,2013-09-04 10:32:00,
2013-09-04 06:37:00,51.1,50.0,30.07,NW,321,0.0,0.0,96,0.00,,---,0.00,VWS V13.01,2013-09-04 10:37:00,
2013-09-04 06:42:00,51.0,49.9,30.07,NW,321,0.0,0.0,96,0.00,,---,0.00,VWS V13.01,2013-09-04 10:42:00,
2013-09-04 06:47:00,51.0,49.9,30.07,NW,321,0.0,0.0,96,0.00,,---,0.00,VWS V13.01,2013-09-04 10:47:00,
2013-09-04 06:52:00,50.9,49.8,30.08,NW,321,0.0,0.0,96,0.00,,---,0.00,VWS V13.01,2013-09-04 10:52:00,
2013-09-04 06:57:00,50.8,49.7,30.08,NW,321,0.0,0.0,96,0.00,,---,0.00,VWS V13.01,2013-09-04 10:57:00,
2013-09-04 07:02:00,50.7,49.6,30.08,NW,321,0.0,0.0,96,0.00,,---,0.00,VWS V13.01,2013-09-04 11:02:00,
2013-09-04 07:07:00,50.8,49.7,30.08,NW,321,0.0,0.0,96,0.00,,---,0.00,VWS V13.01,2013-09-04 11:07:00,
2013-09-04 07:12:00,50.9,49.8,30.08,NW,321,0.0,0.0,96,0.00,,---,0.00,VWS V13.01,2013-09-04 11:12:00,
2013-09-04 07:17:00,51.0,49.9,30.08,NW,321,0.0,0.0,96,0.00,,---,0.00,VWS V13.01,2013-09-04 11:17:00,
2013-09-04 07:22:00,51.3,50.2,30.08,NW,321,0.0,0.0,96,0.00,,---,0.00,VWS V13.01,2013-09-04 11:22:00,
2013-09-04 07:27:00,52.0,51.2,30.08,NW,321,0.0,1.0,97,0.00,,---,0.00,VWS V13.01,2013-09-04 11:27:00,
2013-09-04 07:32:00,52.6,51.8,30.08,NW,321,0.0,1.0,97,0.00,,---,0.00,VWS V13.01,2013-09-04 11:32:00,
2013-09-04 07:37:00,52.9,52.1,30.09,NW,321,0.0,1.0,97,0.00,,---,0.00,VWS V13.01,2013-09-04 11:37:00,
2013-09-04 07:42:00,53.3,52.5,30.09,WNW,287,1.0,3.0,97,0.00,,---,0.00,VWS V13.01,2013-09-04 11:42:00,
2013-09-04 07:47:00,53.6,52.8,30.09,WSW,244,1.0,3.0,97,0.00,,---,0.00,VWS V13.01,2013-09-04 11:47:00,
2013-09-04 07:52:00,53.9,53.1,30.09,WSW,244,1.0,2.0,97,0.00,,---,0.00,VWS V13.01,2013-09-04 11:52:00,
2013-09-04 07:57:00,54.3,53.5,30.09,WSW,238,1.0,2.0,97,0.00,,---,0.00,VWS V13.01,2013-09-04 11:57:00,
2013-09-04 08:02:00,54.7,53.9,30.09,SSW,205,0.0,2.0,97,0.00,,---,0.00,VWS V13.01,2013-09-04 12:02:00,
2013-09-04 08:07:00,55.1,54.3,30.09,SSW,213,2.0,4.0,97,0.00,,---,0.00,VWS V13.01,2013-09-04 12:07:00,
2013-09-04 08:12:00,55.4,54.3,30.10,SSW,213,2.0,5.0,96,0.00,,---,0.00,VWS V13.01,2013-09-04 12:12:00,
2013-09-04 08:17:00,55.8,54.7,30.10,SSW,210,4.0,6.0,96,0.00,,---,0.00,VWS V13.01,2013-09-04 12:17:00,
2013-09-04 08:22:00,56.2,55.1,30.10,SSW,204,3.0,6.0,96,0.00,,---,0.00,VWS V13.01,2013-09-04 12:22:00,
2013-09-04 08:27:00,56.6,55.2,30.10,SSW,207,4.0,8.0,95,0.00,,---,0.00,VWS V13.01,2013-09-04 12:27:00,
2013-09-04 08:32:00,57.1,55.7,30.10,SSW,192,2.0,6.0,95,0.00,,---,0.00,VWS V13.01,2013-09-04 12:32:00,
2013-09-04 08:37:00,57.4,55.7,30.10,West,259,3.0,9.0,94,0.00,,---,0.00,VWS V13.01,2013-09-04 12:37:00,
2013-09-04 08:42:00,57.5,55.5,30.10,SW,231,5.0,10.0,93,0.00,,---,0.00,VWS V13.01,2013-09-04 12:42:00,
2013-09-04 08:47:00,57.7,55.7,30.10,SW,216,5.0,10.0,93,0.00,,---,0.00,VWS V13.01,2013-09-04 12:47:00,
2013-09-04 08:52:00,58.0,55.7,30.10,SW,236,5.0,10.0,92,0.00,,---,0.00,VWS V13.01,2013-09-04 12:52:00,
2013-09-04 08:57:00,58.3,56.0,30.10,SW,223,6.0,10.0,92,0.00,,---,0.00,VWS V13.01,2013-09-04 12:57:00,
2013-09-04 09:02:00,58.6,56.0,30.10,WSW,243,5.0,8.0,91,0.00,,---,0.00,VWS V13.01,2013-09-04 13:02:00,
2013-09-04 09:07:00,59.0,56.4,30.10,SSW,204,5.0,10.0,91,0.00,,---,0.00,VWS V13.01,2013-09-04 13:07:00,
2013-09-04 09:12:00,59.5,56.6,30.10,South,186,2.0,7.0,90,0.00,,---,0.00,VWS V13.01,2013-09-04 13:12:00,
2013-09-04 09:17:00,60.1,57.2,30.10,WSW,254,1.0,9.0,90,0.00,,---,0.00,VWS V13.01,2013-09-04 13:17:00,
2013-09-04 09:22:00,60.6,57.3,30.11,WSW,245,2.0,8.0,89,0.00,,---,0.00,VWS V13.01,2013-09-04 13:22:00,
2013-09-04 09:27:00,60.7,57.1,30.11,SW,217,6.0,8.0,88,0.00,,---,0.00,VWS V13.01,2013-09-04 13:27:00,
2013-09-04 09:32:00,60.6,57.0,30.11,SW,215,4.0,8.0,88,0.00,,---,0.00,VWS V13.01,2013-09-04 13:32:00,
2013-09-04 09:37:00,60.6,57.0,30.11,SW,223,3.0,8.0,88,0.00,,---,0.00,VWS V13.01,2013-09-04 13:37:00,
2013-09-04 09:42:00,61.0,57.4,30.11,WSW,239,4.0,6.0,88,0.00,,---,0.00,VWS V13.01,2013-09-04 13:42:00,
2013-09-04 09:47:00,61.7,58.1,30.11,SSW,196,6.0,8.0,88,0.00,,---,0.00,VWS V13.01,2013-09-04 13:47:00,
2013-09-04 09:52:00,62.2,58.0,30.11,SW,228,2.0,4.0,86,0.00,,---,0.00,VWS V13.01,2013-09-04 13:52:00,
2013-09-04 09:57:00,62.7,57.8,30.11,SW,219,4.0,10.0,84,0.00,,---,0.00,VWS V13.01,2013-09-04 13:57:00,
2013-09-04 10:02:00,63.1,58.2,30.11,WSW,244,5.0,8.0,84,0.00,,---,0.00,VWS V13.01,2013-09-04 14:02:00,
2013-09-04 10:07:00,63.5,58.6,30.12,West,269,5.0,8.0,84,0.00,,---,0.00,VWS V13.01,2013-09-04 14:07:00,
2013-09-04 10:12:00,63.6,58.0,30.11,SSW,211,1.0,5.0,82,0.00,,---,0.00,VWS V13.01,2013-09-04 14:12:00,
2013-09-04 10:17:00,63.9,58.0,30.12,SW,226,1.0,7.0,81,0.00,,---,0.00,VWS V13.01,2013-09-04 14:17:00,
2013-09-04 10:22:00,64.3,58.0,30.12,SSW,198,5.0,7.0,80,0.00,,---,0.00,VWS V13.01,2013-09-04 14:22:00,
2013-09-04 10:27:00,64.6,58.3,30.12,SW,236,4.0,8.0,80,0.00,,---,0.00,VWS V13.01,2013-09-04 14:27:00,
2013-09-04 10:32:00,64.8,57.8,30.12,SSW,204,5.0,7.0,78,0.00,,---,0.00,VWS V13.01,2013-09-04 14:32:00,
2013-09-04 10:37:00,65.0,58.0,30.12,SSW,204,7.0,9.0,78,0.00,,---,0.00,VWS V13.01,2013-09-04 14:37:00,
2013-09-04 10:42:00,65.3,58.3,30.12,SW,214,4.0,7.0,78,0.00,,---,0.00,VWS V13.01,2013-09-04 14:42:00,
2013-09-04 10:47:00,65.7,58.3,30.12,SSW,194,6.0,9.0,77,0.00,,---,0.00,VWS V13.01,2013-09-04 14:47:00,
2013-09-04 10:52:00,66.4,58.6,30.12,SSW,202,5.0,8.0,76,0.00,,---,0.00,VWS V13.01,2013-09-04 14:52:00,
2013-09-04 10:57:00,66.7,58.5,30.12,SW,225,3.0,8.0,75,0.00,,---,0.00,VWS V13.01,2013-09-04 14:57:00,
2013-09-04 11:02:00,66.9,59.1,30.12,WSW,254,3.0,6.0,76,0.00,,---,0.00,VWS V13.01,2013-09-04 15:02:00,
2013-09-04 11:07:00,67.3,58.4,30.11,SSW,195,2.0,7.0,73,0.00,,---,0.00,VWS V13.01,2013-09-04 15:07:00,
2013-09-04 11:12:00,67.4,58.5,30.11,SW,234,2.0,7.0,73,0.00,,---,0.00,VWS V13.01,2013-09-04 15:12:00,
2013-09-04 11:17:00,67.4,58.5,30.11,SSW,203,4.0,7.0,73,0.00,,---,0.00,VWS V13.01,2013-09-04 15:17:00,
2013-09-04 11:22:00,67.2,57.5,30.11,WSW,240,5.0,6.0,71,0.00,,---,0.00,VWS V13.01,2013-09-04 15:22:00,
2013-09-04 11:27:00,67.4,58.5,30.11,SW,229,3.0,6.0,73,0.00,,---,0.00,VWS V13.01,2013-09-04 15:27:00,
2013-09-04 11:32:00,67.5,58.2,30.11,SW,221,0.0,9.0,72,0.00,,---,0.00,VWS V13.01,2013-09-04 15:32:00,
2013-09-04 11:37:00,67.9,58.9,30.11,SSW,211,10.0,10.0,73,0.00,,---,0.00,VWS V13.01,2013-09-04 15:37:00,
2013-09-04 11:42:00,68.5,58.7,30.11,SSW,204,6.0,9.0,71,0.00,,---,0.00,VWS V13.01,2013-09-04 15:42:00,
2013-09-04 11:47:00,68.9,59.1,30.11,SSW,207,4.0,9.0,71,0.00,,---,0.00,VWS V13.01,2013-09-04 15:47:00,
2013-09-04 11:52:00,69.3,59.9,30.11,West,263,3.0,8.0,72,0.00,,---,0.00,VWS V13.01,2013-09-04 15:52:00,
2013-09-04 11:57:00,69.3,58.3,30.10,WSW,246,6.0,9.0,68,0.00,,---,0.00,VWS V13.01,2013-09-04 15:57:00,
2013-09-04 12:02:00,69.5,58.1,30.10,SW,221,4.0,8.0,67,0.00,,---,0.00,VWS V13.01,2013-09-04 16:02:00,
2013-09-04 12:07:00,69.5,58.5,30.10,WNW,290,3.0,10.0,68,0.00,,---,0.00,VWS V13.01,2013-09-04 16:07:00,
2013-09-04 12:12:00,69.7,59.1,30.10,SSW,206,4.0,10.0,69,0.00,,---,0.00,VWS V13.01,2013-09-04 16:12:00,
2013-09-04 12:17:00,69.8,59.2,30.10,SE,137,6.0,10.0,69,0.00,,---,0.00,VWS V13.01,2013-09-04 16:17:00,
2013-09-04 12:22:00,69.9,58.5,30.09,SW,224,5.0,7.0,67,0.00,,---,0.00,VWS V13.01,2013-09-04 16:22:00,
2013-09-04 12:27:00,70.0,58.5,30.09,SSW,200,6.0,10.0,67,0.00,,---,0.00,VWS V13.01,2013-09-04 16:27:00,
2013-09-04 12:32:00,70.3,58.4,30.09,SW,229,8.0,10.0,66,0.00,,---,0.00,VWS V13.01,2013-09-04 16:32:00,
2013-09-04 12:37:00,70.6,58.7,30.09,South,175,8.0,11.0,66,0.00,,---,0.00,VWS V13.01,2013-09-04 16:37:00,
2013-09-04 12:42:00,71.0,59.5,30.09,WSW,250,4.0,9.0,67,0.00,,---,0.00,VWS V13.01,2013-09-04 16:42:00,
2013-09-04 12:47:00,70.8,58.0,30.09,SW,223,6.0,10.0,64,0.00,,---,0.00,VWS V13.01,2013-09-04 16:47:00,
2013-09-04 12:52:00,70.4,58.9,30.09,SSW,198,4.0,7.0,67,0.00,,---,0.00,VWS V13.01,2013-09-04 16:52:00,
2013-09-04 12:57:00,70.8,58.9,30.09,WSW,239,8.0,8.0,66,0.00,,---,0.00,VWS V13.01,2013-09-04 16:57:00,
2013-09-04 13:02:00,71.0,58.2,30.08,SSW,208,5.0,10.0,64,0.00,,---,0.00,VWS V13.01,2013-09-04 17:02:00,
2013-09-04 13:07:00,70.7,59.2,30.08,West,261,2.0,11.0,67,0.00,,---,0.00,VWS V13.01,2013-09-04 17:07:00,
2013-09-04 13:12:00,70.9,59.4,30.08,WSW,252,8.0,8.0,67,0.00,,---,0.00,VWS V13.01,2013-09-04 17:12:00,
2013-09-04 13:17:00,71.3,58.5,30.08,South,178,1.0,8.0,64,0.00,,---,0.00,VWS V13.01,2013-09-04 17:17:00,
2013-09-04 13:22:00,71.6,59.2,30.08,SW,227,3.0,6.0,65,0.00,,---,0.00,VWS V13.01,2013-09-04 17:22:00,
2013-09-04 13:27:00,72.0,59.2,30.08,SW,231,1.0,9.0,64,0.00,,---,0.00,VWS V13.01,2013-09-04 17:27:00,
2013-09-04 13:32:00,72.1,58.8,30.08,SSW,212,4.0,7.0,63,0.00,,---,0.00,VWS V13.01,2013-09-04 17:32:00,
2013-09-04 13:37:00,72.4,59.1,30.08,West,273,2.0,10.0,63,0.00,,---,0.00,VWS V13.01,2013-09-04 17:37:00,
2013-09-04 13:42:00,72.8,59.0,30.08,WNW,287,6.0,10.0,62,0.00,,---,0.00,VWS V13.01,2013-09-04 17:42:00,
2013-09-04 13:47:00,72.8,58.6,30.08,South,178,1.0,10.0,61,0.00,,---,0.00,VWS V13.01,2013-09-04 17:47:00,
2013-09-04 13:52:00,73.2,60.7,30.07,SW,232,7.0,7.0,65,0.00,,---,0.00,VWS V13.01,2013-09-04 17:52:00,
2013-09-04 13:57:00,73.5,58.8,30.07,WSW,250,3.0,11.0,60,0.00,,---,0.00,VWS V13.01,2013-09-04 17:57:00,
2013-09-04 14:02:00,73.5,57.8,30.07,SW,215,4.0,9.0,58,0.00,,---,0.00,VWS V13.01,2013-09-04 18:02:00,
2013-09-04 14:07:00,73.7,59.4,30.07,WSW,257,9.0,9.0,61,0.00,,---,0.00,VWS V13.01,2013-09-04 18:07:00,
2013-09-04 14:12:00,73.8,58.6,30.07,SW,225,4.0,8.0,59,0.00,,---,0.00,VWS V13.01,2013-09-04 18:12:00,
2013-09-04 14:17:00,73.8,58.1,30.07,SW,230,9.0,12.0,58,0.00,,---,0.00,VWS V13.01,2013-09-04 18:17:00,
2013-09-04 14:22:00,73.7,59.4,30.07,WNW,288,1.0,7.0,61,0.00,,---,0.00,VWS V13.01,2013-09-04 18:22:00,
2013-09-04 14:27:00,74.0,57.8,30.07,SSW,204,2.0,7.0,57,0.00,,---,0.00,VWS V13.01,2013-09-04 18:27:00,
2013-09-04 14:32:00,74.4,58.7,30.06,WSW,252,6.0,9.0,58,0.00,,---,0.00,VWS V13.01,2013-09-04 18:32:00,
2013-09-04 14:37:00,74.6,58.9,30.07,SSW,194,7.0,9.0,58,0.00,,---,0.00,VWS V13.01,2013-09-04 18:37:00,
2013-09-04 14:42:00,74.8,58.6,30.06,SE,138,5.0,8.0,57,0.00,,---,0.00,VWS V13.01,2013-09-04 18:42:00,
2013-09-04 14:47:00,75.0,58.3,30.06,SW,232,4.0,11.0,56,0.00,,---,0.00,VWS V13.01,2013-09-04 18:47:00,
2013-09-04 14:52:00,75.1,58.8,30.06,SW,217,4.0,7.0,57,0.00,,---,0.00,VWS V13.01,2013-09-04 18:52:00,
2013-09-04 14:57:00,75.2,58.9,30.06,NNW,332,2.0,7.0,57,0.00,,---,0.00,VWS V13.01,2013-09-04 18:57:00,
2013-09-04 15:02:00,75.0,59.2,30.06,West,261,4.0,5.0,58,0.00,,---,0.00,VWS V13.01,2013-09-04 19:02:00,
2013-09-04 15:07:00,75.2,59.9,30.06,SW,235,2.0,6.0,59,0.00,,---,0.00,VWS V13.01,2013-09-04 19:07:00,
2013-09-04 15:12:00,75.3,58.5,30.06,SW,232,4.0,8.0,56,0.00,,---,0.00,VWS V13.01,2013-09-04 19:12:00,
2013-09-04 15:17:00,75.5,59.2,30.06,SW,225,3.0,8.0,57,0.00,,---,0.00,VWS V13.01,2013-09-04 19:17:00,
2013-09-04 15:22:00,75.8,59.0,30.05,West,278,1.0,7.0,56,0.00,,---,0.00,VWS V13.01,2013-09-04 19:22:00,
2013-09-04 15:27:00,76.1,59.3,30.06,NNW,348,5.0,7.0,56,0.00,,---,0.00,VWS V13.01,2013-09-04 19:27:00,
2013-09-04 15:32:00,75.8,59.5,30.05,SSW,209,8.0,10.0,57,0.00,,---,0.00,VWS V13.01,2013-09-04 19:32:00,
2013-09-04 15:38:00,75.9,60.1,30.05,WSW,247,4.0,10.0,58,0.00,,---,0.00,VWS V13.01,2013-09-04 19:38:00,
2013-09-04 15:43:00,76.3,58.5,30.05,WNW,284,4.0,8.0,54,0.00,,---,0.00,VWS V13.01,2013-09-04 19:43:00,
2013-09-04 15:48:00,76.5,58.1,30.05,WSW,251,2.0,8.0,53,0.00,,---,0.00,VWS V13.01,2013-09-04 19:48:00,
2013-09-04 15:53:00,76.7,58.8,30.05,SW,229,10.0,14.0,54,0.00,,---,0.00,VWS V13.01,2013-09-04 19:53:00,
2013-09-04 15:58:00,76.8,58.9,30.05,WSW,248,7.0,14.0,54,0.00,,---,0.00,VWS V13.01,2013-09-04 19:58:00,
2013-09-04 16:03:00,76.7,58.8,30.05,SW,219,3.0,8.0,54,0.00,,---,0.00,VWS V13.01,2013-09-04 20:03:00,
2013-09-04 16:08:00,76.7,57.2,30.05,SSW,211,5.0,13.0,51,0.00,,---,0.00,VWS V13.01,2013-09-04 20:08:00,
2013-09-04 16:13:00,76.8,57.3,30.05,SSW,213,4.0,9.0,51,0.00,,---,0.00,VWS V13.01,2013-09-04 20:13:00,
2013-09-04 16:18:00,77.0,59.1,30.05,South,191,0.0,9.0,54,0.00,,---,0.00,VWS V13.01,2013-09-04 20:18:00,
2013-09-04 16:23:00,77.3,58.8,30.05,WNW,286,2.0,9.0,53,0.00,,---,0.00,VWS V13.01,2013-09-04 20:23:00,
2013-09-04 16:28:00,77.1,58.7,30.05,SW,223,5.0,9.0,53,0.00,,---,0.00,VWS V13.01,2013-09-04 20:28:00,
2013-09-04 16:33:00,77.2,58.2,30.05,WSW,257,0.0,7.0,52,0.00,,---,0.00,VWS V13.01,2013-09-04 20:33:00,
2013-09-04 16:38:00,77.3,58.3,30.05,SW,225,2.0,11.0,52,0.00,,---,0.00,VWS V13.01,2013-09-04 20:38:00,
2013-09-04 16:43:00,77.2,58.2,30.05,WSW,244,4.0,9.0,52,0.00,,---,0.00,VWS V13.01,2013-09-04 20:43:00,
2013-09-04 16:48:00,77.2,59.8,30.05,West,277,1.0,9.0,55,0.00,,---,0.00,VWS V13.01,2013-09-04 20:48:00,
2013-09-04 16:53:00,77.4,57.9,30.05,SW,234,3.0,7.0,51,0.00,,---,0.00,VWS V13.01,2013-09-04 20:53:00,
2013-09-04 16:58:00,77.5,59.0,30.05,WSW,240,6.0,7.0,53,0.00,,---,0.00,VWS V13.01,2013-09-04 20:58:00,
2013-09-04 17:03:00,77.5,58.5,30.05,West,271,3.0,6.0,52,0.00,,---,0.00,VWS V13.01,2013-09-04 21:03:00,
2013-09-04 17:08:00,77.8,58.8,30.05,SSW,206,5.0,9.0,52,0.00,,---,0.00,VWS V13.01,2013-09-04 21:08:00,
2013-09-04 17:13:00,77.6,58.1,30.05,SSW,200,6.0,7.0,51,0.00,,---,0.00,VWS V13.01,2013-09-04 21:13:00,
2013-09-04 17:18:00,77.6,59.1,30.05,SSW,210,5.0,10.0,53,0.00,,---,0.00,VWS V13.01,2013-09-04 21:18:00,
2013-09-04 17:23:00,77.6,59.1,30.05,West,280,2.0,6.0,53,0.00,,---,0.00,VWS V13.01,2013-09-04 21:23:00,
2013-09-04 17:28:00,77.5,59.0,30.04,SW,232,5.0,9.0,53,0.00,,---,0.00,VWS V13.01,2013-09-04 21:28:00,
2013-09-04 17:33:00,77.2,58.8,30.05,WSW,244,2.0,8.0,53,0.00,,---,0.00,VWS V13.01,2013-09-04 21:33:00,
2013-09-04 17:38:00,77.1,58.7,30.04,WSW,251,4.0,9.0,53,0.00,,---,0.00,VWS V13.01,2013-09-04 21:38:00,
2013-09-04 17:43:00,76.9,58.5,30.04,SSW,204,5.0,9.0,53,0.00,,---,0.00,VWS V13.01,2013-09-04 21:43:00,
2013-09-04 17:48:00,76.8,58.4,30.04,SW,224,2.0,9.0,53,0.00,,---,0.00,VWS V13.01,2013-09-04 21:48:00,
2013-09-04 17:53:00,76.8,58.4,30.04,WSW,244,4.0,7.0,53,0.00,,---,0.00,VWS V13.01,2013-09-04 21:53:00,
2013-09-04 17:58:00,76.8,57.9,30.04,SSW,207,1.0,9.0,52,0.00,,---,0.00,VWS V13.01,2013-09-04 21:58:00,
2013-09-04 18:03:00,76.6,57.7,30.04,SW,233,4.0,11.0,52,0.00,,---,0.00,VWS V13.01,2013-09-04 22:03:00,
2013-09-04 18:08:00,76.3,57.9,30.04,WSW,240,7.0,11.0,53,0.00,,---,0.00,VWS V13.01,2013-09-04 22:08:00,
2013-09-04 18:13:00,76.2,58.4,30.04,SW,219,3.0,7.0,54,0.00,,---,0.00,VWS V13.01,2013-09-04 22:13:00,
2013-09-04 18:18:00,76.3,59.0,30.04,SW,219,4.0,8.0,55,0.00,,---,0.00,VWS V13.01,2013-09-04 22:18:00,
2013-09-04 18:23:00,76.3,58.5,30.04,WSW,247,6.0,9.0,54,0.00,,---,0.00,VWS V13.01,2013-09-04 22:23:00,
2013-09-04 18:28:00,76.0,58.7,30.04,SW,216,4.0,9.0,55,0.00,,---,0.00,VWS V13.01,2013-09-04 22:28:00,
2013-09-04 18:33:00,75.5,58.2,30.04,SW,226,4.0,7.0,55,0.00,,---,0.00,VWS V13.01,2013-09-04 22:33:00,
2013-09-04 18:38:00,75.0,57.8,30.04,SW,232,5.0,10.0,55,0.00,,---,0.00,VWS V13.01,2013-09-04 22:38:00,
2013-09-04 18:43:00,74.6,58.4,30.04,WSW,241,3.0,8.0,57,0.00,,---,0.00,VWS V13.01,2013-09-04 22:43:00,
2013-09-04 18:48:00,74.4,58.7,30.03,SW,224,6.0,8.0,58,0.00,,---,0.00,VWS V13.01,2013-09-04 22:48:00,
2013-09-04 18:53:00,74.1,58.4,30.03,SSW,202,4.0,7.0,58,0.00,,---,0.00,VWS V13.01,2013-09-04 22:53:00,
2013-09-04 18:58:00,73.8,58.6,30.03,SW,219,6.0,7.0,59,0.00,,---,0.00,VWS V13.01,2013-09-04 22:58:00,
2013-09-04 19:03:00,73.5,58.3,30.03,SW,219,5.0,7.0,59,0.00,,---,0.00,VWS V13.01,2013-09-04 23:03:00,
2013-09-04 19:08:00,73.2,58.0,30.03,SW,225,4.0,8.0,59,0.00,,---,0.00,VWS V13.01,2013-09-04 23:08:00,
2013-09-04 19:13:00,72.9,58.2,30.03,SSW,203,4.0,8.0,60,0.00,,---,0.00,VWS V13.01,2013-09-04 23:13:00,
2013-09-04 19:18:00,72.6,58.8,30.03,SW,217,2.0,9.0,62,0.00,,---,0.00,VWS V13.01,2013-09-04 23:18:00,
2013-09-04 19:23:00,72.2,58.5,30.03,SW,221,4.0,7.0,62,0.00,,---,0.00,VWS V13.01,2013-09-04 23:23:00,
2013-09-04 19:28:00,72.0,58.7,30.03,SSW,213,3.0,7.0,63,0.00,,---,0.00,VWS V13.01,2013-09-04 23:28:00,
2013-09-04 19:33:00,71.7,58.9,30.03,SSW,203,3.0,5.0,64,0.00,,---,0.00,VWS V13.01,2013-09-04 23:33:00,
2013-09-04 19:38:00,71.4,58.6,30.03,SW,232,3.0,5.0,64,0.00,,---,0.00,VWS V13.01,2013-09-04 23:38:00,
2013-09-04 19:43:00,71.1,58.8,30.03,SW,218,3.0,6.0,65,0.00,,---,0.00,VWS V13.01,2013-09-04 23:43:00,
2013-09-04 19:48:00,70.8,58.9,30.03,SSW,209,3.0,6.0,66,0.00,,---,0.00,VWS V13.01,2013-09-04 23:48:00,
2013-09-04 19:53:00,70.5,58.6,30.03,SW,227,4.0,6.0,66,0.00,,---,0.00,VWS V13.01,2013-09-04 23:53:00,
2013-09-04 19:58:00,70.3,58.8,30.03,SW,226,3.0,6.0,67,0.00,,---,0.00,VWS V13.01,2013-09-04 23:58:00,
2013-09-04 20:03:00,70.1,58.7,30.03,SSW,210,1.0,4.0,67,0.00,,---,0.00,VWS V13.01,2013-09-05 00:03:00,
2013-09-04 20:08:00,69.7,58.7,30.04,SW,225,2.0,4.0,68,0.00,,---,0.00,VWS V13.01,2013-09-05 00:08:00,
2013-09-04 20:13:00,69.4,58.8,30.04,SW,230,0.0,4.0,69,0.00,,---,0.00,VWS V13.01,2013-09-05 00:13:00,
2013-09-04 20:18:00,69.1,58.5,30.04,SW,218,2.0,5.0,69,0.00,,---,0.00,VWS V13.01,2013-09-05 00:18:00,
2013-09-04 20:23:00,68.8,58.6,30.04,SW,224,1.0,3.0,70,0.00,,---,0.00,VWS V13.01,2013-09-05 00:23:00,
2013-09-04 20:28:00,68.5,58.7,30.04,SW,224,0.0,3.0,71,0.00,,---,0.00,VWS V13.01,2013-09-05 00:28:00,
2013-09-04 20:33:00,68.2,59.2,30.04,SW,224,0.0,1.0,73,0.00,,---,0.00,VWS V13.01,2013-09-05 00:33:00,
2013-09-04 20:38:00,67.7,59.5,30.04,SW,224,0.0,2.0,75,0.00,,---,0.00,VWS V13.01,2013-09-05 00:38:00,
2013-09-04 20:43:00,67.2,59.4,30.05,SW,224,1.0,1.0,76,0.00,,---,0.00,VWS V13.01,2013-09-05 00:43:00,
2013-09-04 20:48:00,66.6,59.2,30.05,SSW,211,0.0,2.0,77,0.00,,---,0.00,VWS V13.01,2013-09-05 00:48:00,
2013-09-04 20:53:00,66.2,58.8,30.05,SSW,211,0.0,1.0,77,0.00,,---,0.00,VWS V13.01,2013-09-05 00:53:00,
2013-09-04 20:58:00,65.7,59.0,30.05,SSW,211,0.0,1.0,79,0.00,,---,0.00,VWS V13.01,2013-09-05 00:58:00,
2013-09-04 21:03:00,65.3,59.0,30.06,SSW,211,0.0,0.0,80,0.00,,---,0.00,VWS V13.01,2013-09-05 01:03:00,
2013-09-04 21:08:00,64.8,58.5,30.06,SSW,211,0.0,0.0,80,0.00,,---,0.00,VWS V13.01,2013-09-05 01:08:00,
2013-09-04 21:13:00,64.5,58.5,30.06,SSW,211,0.0,0.0,81,0.00,,---,0.00,VWS V13.01,2013-09-05 01:13:00,
2013-09-04 21:18:00,64.1,58.5,30.06,SSW,211,0.0,1.0,82,0.00,,---,0.00,VWS V13.01,2013-09-05 01:18:00,
2013-09-04 21:23:00,63.8,58.2,30.06,SSW,211,0.0,0.0,82,0.00,,---,0.00,VWS V13.01,2013-09-05 01:23:00,
2013-09-04 21:28:00,63.5,58.2,30.06,SSW,211,0.0,1.0,83,0.00,,---,0.00,VWS V13.01,2013-09-05 01:28:00,
2013-09-04 21:33:00,63.2,58.0,30.06,SSW,198,0.0,2.0,83,0.00,,---,0.00,VWS V13.01,2013-09-05 01:33:00,
2013-09-04 21:38:00,63.0,58.1,30.06,SSW,197,0.0,2.0,84,0.00,,---,0.00,VWS V13.01,2013-09-05 01:38:00,
2013-09-04 21:43:00,63.0,58.1,30.06,South,190,2.0,3.0,84,0.00,,---,0.00,VWS V13.01,2013-09-05 01:43:00,
2013-09-04 21:48:00,63.0,58.1,30.05,South,190,1.0,3.0,84,0.00,,---,0.00,VWS V13.01,2013-09-05 01:48:00,
2013-09-04 21:53:00,63.0,58.1,30.05,South,182,0.0,3.0,84,0.00,,---,0.00,VWS V13.01,2013-09-05 01:53:00,
2013-09-04 21:58:00,62.9,58.0,30.05,South,189,0.0,3.0,84,0.00,,---,0.00,VWS V13.01,2013-09-05 01:58:00,
2013-09-04 22:03:00,62.9,58.0,30.06,South,189,0.0,1.0,84,0.00,,---,0.00,VWS V13.01,2013-09-05 02:03:00,
2013-09-04 22:08:00,62.8,58.2,30.06,South,189,0.0,1.0,85,0.00,,---,0.00,VWS V13.01,2013-09-05 02:08:00,
2013-09-04 22:13:00,62.6,58.0,30.06,South,189,0.0,0.0,85,0.00,,---,0.00,VWS V13.01,2013-09-05 02:13:00,
2013-09-04 22:18:00,62.4,57.8,30.07,South,189,0.0,0.0,85,0.00,,---,0.00,VWS V13.01,2013-09-05 02:18:00,
2013-09-04 22:23:00,62.1,57.5,30.07,South,189,0.0,1.0,85,0.00,,---,0.00,VWS V13.01,2013-09-05 02:23:00,
2013-09-04 22:28:00,61.9,57.7,30.07,South,189,0.0,1.0,86,0.00,,---,0.00,VWS V13.01,2013-09-05 02:28:00,
2013-09-04 22:33:00,61.7,57.5,30.07,South,189,0.0,0.0,86,0.00,,---,0.00,VWS V13.01,2013-09-05 02:33:00,
2013-09-04 22:38:00,61.6,57.7,30.07,South,189,0.0,0.0,87,0.00,,---,0.00,VWS V13.01,2013-09-05 02:38:00,
2013-09-04 22:43:00,61.4,57.5,30.07,South,189,0.0,1.0,87,0.00,,---,0.00,VWS V13.01,2013-09-05 02:43:00,
2013-09-04 22:48:00,61.4,57.5,30.07,South,189,0.0,1.0,87,0.00,,---,0.00,VWS V13.01,2013-09-05 02:48:00,
2013-09-04 22:53:00,61.3,57.4,30.07,South,189,0.0,1.0,87,0.00,,---,0.00,VWS V13.01,2013-09-05 02:53:00,
2013-09-04 22:58:00,61.2,57.3,30.07,South,189,0.0,1.0,87,0.00,,---,0.00,VWS V13.01,2013-09-05 02:58:00,
2013-09-04 23:03:00,61.1,57.2,30.07,South,189,1.0,2.0,87,0.00,,---,0.00,VWS V13.01,2013-09-05 03:03:00,
2013-09-04 23:08:00,60.9,57.0,30.07,South,189,0.0,2.0,87,0.00,,---,0.00,VWS V13.01,2013-09-05 03:08:00,
2013-09-04 23:13:00,60.8,56.9,30.07,South,189,0.0,1.0,87,0.00,,---,0.00,VWS V13.01,2013-09-05 03:13:00,
2013-09-04 23:18:00,60.6,56.7,30.07,South,189,0.0,1.0,87,0.00,,---,0.00,VWS V13.01,2013-09-05 03:18:00,
2013-09-04 23:23:00,60.5,56.9,30.07,South,189,0.0,1.0,88,0.00,,---,0.00,VWS V13.01,2013-09-05 03:23:00,
2013-09-04 23:28:00,60.5,56.9,30.07,South,189,1.0,1.0,88,0.00,,---,0.00,VWS V13.01,2013-09-05 03:28:00,
2013-09-04 23:33:00,60.5,56.9,30.07,South,189,0.0,3.0,88,0.00,,---,0.00,VWS V13.01,2013-09-05 03:33:00,
2013-09-04 23:38:00,60.6,57.0,30.07,South,189,0.0,3.0,88,0.00,,---,0.00,VWS V13.01,2013-09-05 03:38:00,
2013-09-04 23:43:00,60.6,57.0,30.07,South,189,1.0,1.0,88,0.00,,---,0.00,VWS V13.01,2013-09-05 03:43:00,
2013-09-04 23:48:00,60.6,57.0,30.07,South,189,1.0,2.0,88,0.00,,---,0.00,VWS V13.01,2013-09-05 03:48:00,
2013-09-04 23:53:00,60.5,56.9,30.07,South,189,0.0,1.0,88,0.00,,---,0.00,VWS V13.01,2013-09-05 03:53:00,
2013-09-04 23:58:00,60.5,56.9,30.07,South,189,0.0,2.0,88,0.00,,---,0.00,VWS V13.01,2013-09-05 03:58:00,